SHIJIAN-17 (SJ-17)

Last updated on Mon Jul 07 2025 00:02:45 GMT+0000 (Coordinated Universal Time)

1 41838U 16065A 25187.59015819 .00000076 00000+0 00000+0 0 9994 2 41838 4.8714 76.8128 0003582 310.7031 291.7669 1.00274683 31741
UTC large
Height (km)
Speed (km/s)
/
Latitude / Longitude
Inclination (degrees)
Orbital Period (minutes)
Azimuth
Elevation
Range (km)
Doppler Factor

Next 0 passes for location: London (51.5072 / 0.1276)

Sorry there are no passes over London.